Weather in Andryuki

Russia / Krasnodar Krai     44°07′25″N   40°49′59″E
temp.,
°C
wind,
m/s
gust,
m/s
humid.,
%
clouds,
%
prec.,
mm/h
press.,
hPa
HPBL,
m
27 november, sat
sat2700:000ssw44700 0.0 102148
03:000ssw44641 0.0 101955
06:00+1ssw4547100 0.0 101860
09:00+6ssw3438100 0.0 101673
12:00+9ssw3453100 0.0 1015221
15:00+7ssw3568100 0.0 1015173
18:00+6ssw3377100 0.0 101660
21:00+6ssw3578100 0.1 1016108
28 november, sun
sun2800:00+6ssw3580100 0.0 101696
03:00+6ssw3472100 0.0 101562
06:00+6ssw3477100 0.0 101475
09:00+7ssw2378100 0.1 1015107
12:00+7s128396 1.9 1015229
15:00+9sw1272100 2.1 1013426
18:00+5ssw238710 0.0 101543
21:00+6ssw22815 0.0 101538
29 november, mon
mon2900:00+6ssw338436 0.1 101568
03:00+6s3384100 0.1 101654
06:00+6ssw4583100 0.0 101588
09:00+9s467454 0.0 1013172
12:00+13ssw465973 0.0 1012691
15:00+12s496487 0.0 1011427
18:00+10s596777 0.0 1011225
21:00+9s467122 0.1 1009127
30 november, tue
tue3000:00+11s4115966 0.0 1007495
03:00+9s468053 2.2 1007126
06:00+8ssw1191100 3.8 100729
09:00+7ssw2496100 13.8 1010235
12:00+7ssw4781100 7.6 1009373
15:00+7s24709 9.1 1007404
18:00+6s1185100 0.8 100350
21:00+6ssw0193100 2.2 99919
1 december, wed
wed100:00+6sw368763 3.3 995278
03:00+3sw5217695 12.7 10002140
06:00+4sw9226956 3.6 10022175
09:00+3w213673 3.9 10071732
12:00+4nw16575 0.0 10071148
15:00+2n2274100 0.0 1008540
18:00−1nw129464 0.1 1011167
21:00−3sw128412 0.1 101471